timestamp,surface_pressure_avg,surface_temp_avg,battery_voltage,lat,long
2019-12-30 00:09:01+00:00,305.2164,1.9,12.65,47.84626,-54.09684
2019-12-30 00:19:01+00:00,311.7014,1.9,12.65,47.84626,-54.09684
2019-12-30 00:29:01+00:00,318.46299999999997,1.9,12.65,47.84626,-54.09684
2019-12-30 00:39:01+00:00,319.7997,1.89,12.65,47.84626,-54.09684
2019-12-30 00:49:01+00:00,324.2614,1.9,12.65,47.84626,-54.09684
2019-12-30 00:59:01+00:00,334.0630000000001,1.9,12.65,47.84626,-54.09684
2019-12-30 01:09:01+00:00,339.3796,1.89,12.65,47.84626,-54.09684
2019-12-30 01:19:01+00:00,338.6896,1.83,12.65,47.84626,-54.09684
2019-12-30 01:29:01+00:00,342.7162,1.8,12.65,47.84626,-54.09684
2019-12-30 01:39:01+00:00,346.4063,1.8,12.65,47.84626,-54.09684
2019-12-30 01:49:01+00:00,346.1514,1.8,12.65,47.84626,-54.09684
2019-12-30 01:59:01+00:00,345.6562,1.8,12.65,47.84626,-54.09684
2019-12-30 02:09:01+00:00,349.3997,1.79,12.65,47.84626,-54.09684
2019-12-30 02:19:01+00:00,351.1029,1.8,12.65,47.84626,-54.09684
2019-12-30 02:29:01+00:00,351.4046,1.8,12.65,47.84626,-54.09684
2019-12-30 02:39:01+00:00,351.7946,1.8,12.65,47.84626,-54.09684
2019-12-30 02:49:01+00:00,352.3913,1.79,12.65,47.84626,-54.09684
2019-12-30 02:59:01+00:00,353.5746,1.77,12.65,47.84626,-54.09684
2019-12-30 03:09:01+00:00,356.6613,1.79,12.65,47.84626,-54.09684
2019-12-30 03:19:01+00:00,352.7596,1.79,12.65,47.84626,-54.09684
2019-12-30 03:29:01+00:00,347.2912,1.78,12.65,47.84626,-54.09684
2019-12-30 03:39:01+00:00,346.4196,1.77,12.65,47.84626,-54.09684
2019-12-30 03:49:01+00:00,346.343,1.8,12.65,47.84626,-54.09684
2019-12-30 03:59:01+00:00,340.1562,1.8,12.65,47.84626,-54.09684
2019-12-30 04:09:01+00:00,333.2914,1.79,12.65,47.84626,-54.09684
2019-12-30 04:19:01+00:00,334.5446,1.8,12.65,47.84626,-54.09684
2019-12-30 04:29:01+00:00,335.7547,1.8,12.65,47.84626,-54.09684
2019-12-30 04:39:01+00:00,327.0763,1.8,12.65,47.84626,-54.09684
2019-12-30 04:49:01+00:00,319.7697,1.76,12.65,47.84626,-54.09684
2019-12-30 04:59:01+00:00,317.52299999999997,1.75,12.65,47.84626,-54.09684
2019-12-30 05:09:01+00:00,315.6813,1.78,12.65,47.84626,-54.09684
2019-12-30 05:19:01+00:00,303.5031,1.71,12.65,47.84626,-54.09684
2019-12-30 05:29:01+00:00,290.583,1.7,12.65,47.84626,-54.09684
2019-12-30 05:39:01+00:00,280.6664,1.8,12.65,47.84626,-54.09684
2019-12-30 05:49:01+00:00,273.5731,1.8,12.65,47.84626,-54.09684
2019-12-30 05:59:01+00:00,267.6098,1.8,12.65,47.84626,-54.09684
2019-12-30 06:09:01+00:00,259.8281,1.8,12.65,47.84626,-54.09684
2019-12-30 06:19:01+00:00,251.2181,1.8,12.65,47.84626,-54.09684
2019-12-30 06:29:01+00:00,242.2831,1.8,12.65,47.84626,-54.09684
2019-12-30 06:39:01+00:00,239.4581,1.78,12.65,47.84626,-54.09684
2019-12-30 06:49:01+00:00,235.5714,1.8,12.65,47.84626,-54.09684
2019-12-30 06:59:01+00:00,229.5564,1.8,12.65,47.84626,-54.09684
2019-12-30 07:09:01+00:00,223.7898,1.73,12.65,47.84626,-54.09684
2019-12-30 07:19:01+00:00,223.3898,1.75,12.65,47.84626,-54.09684
2019-12-30 07:29:01+00:00,221.1997,1.77,12.65,47.84626,-54.09684
2019-12-30 07:39:01+00:00,217.8497,1.77,12.65,47.84626,-54.09684
2019-12-30 07:49:01+00:00,219.3164,1.78,12.65,47.84626,-54.09684
2019-12-30 07:59:01+00:00,225.8314,1.8,12.65,47.84626,-54.09684
2019-12-30 08:09:01+00:00,227.4814,1.8,12.65,47.84626,-54.09684
2019-12-30 08:19:01+00:00,223.8464,1.8,12.65,47.84626,-54.09684
2019-12-30 08:29:01+00:00,225.8198,1.79,12.65,47.84626,-54.09684
2019-12-30 08:39:01+00:00,233.1897,1.8,12.65,47.84626,-54.09684
2019-12-30 08:49:01+00:00,237.7297,1.8,12.65,47.84626,-54.09684
2019-12-30 08:59:01+00:00,237.8998,1.8,12.65,47.84626,-54.09684
2019-12-30 09:09:01+00:00,242.5432,1.79,12.65,47.84626,-54.09684
2019-12-30 09:19:01+00:00,253.9914,1.7,12.65,47.84626,-54.09684
2019-12-30 09:29:01+00:00,262.6464,1.72,12.65,47.84626,-54.09684
2019-12-30 09:39:01+00:00,261.8881,1.71,12.65,47.84626,-54.09684
2019-12-30 09:49:01+00:00,261.8797,1.7,12.65,47.84626,-54.09684
2019-12-30 09:59:01+00:00,267.6514,1.7,12.65,47.84626,-54.09684
2019-12-30 10:09:01+00:00,275.1147,1.7,12.65,47.84626,-54.09684
2019-12-30 10:19:01+00:00,276.4664,1.7,12.65,47.84626,-54.09684
2019-12-30 10:29:01+00:00,278.2413,1.7,12.65,47.84626,-54.09684
2019-12-30 10:39:01+00:00,285.603,1.72,12.65,47.84626,-54.09684
2019-12-30 10:49:01+00:00,296.1497,1.7,12.65,47.84626,-54.09684
2019-12-30 10:59:01+00:00,300.7463,1.7,12.65,47.84626,-54.09684
2019-12-30 11:09:01+00:00,302.0247,1.7,12.65,47.84626,-54.09684
2019-12-30 11:19:01+00:00,309.2014,1.7,12.57,47.84626,-54.09684
2019-12-30 11:29:01+00:00,322.243,1.7,12.57,47.84626,-54.09684
2019-12-30 11:39:01+00:00,324.773,1.7,12.57,47.84626,-54.09684
2019-12-30 11:49:01+00:00,322.5914,1.7,12.57,47.84626,-54.09684
2019-12-30 11:59:01+00:00,328.7664,1.7,12.57,47.84626,-54.09684
2019-12-30 12:09:01+00:00,340.3264,1.7,12.57,47.84626,-54.09684
2019-12-30 12:19:01+00:00,342.3496,1.7,12.65,47.84626,-54.09684
2019-12-30 12:29:01+00:00,342.5162,1.7,12.65,47.84626,-54.09684
2019-12-30 12:39:01+00:00,351.4663,1.7,12.65,47.84626,-54.09684
2019-12-30 12:49:01+00:00,359.9662,1.7,12.65,47.84626,-54.09684
2019-12-30 12:59:01+00:00,362.9363,1.73,12.65,47.84626,-54.09684
2019-12-30 13:09:01+00:00,364.9063,1.75,12.65,47.84626,-54.09684
2019-12-30 13:19:01+00:00,371.6964,1.76,12.73,47.84626,-54.09684
2019-12-30 13:29:01+00:00,376.0146,1.77,12.73,47.84626,-54.09684
2019-12-30 13:39:01+00:00,376.5712,1.78,12.73,47.84626,-54.09684
2019-12-30 13:49:01+00:00,377.2146,1.79,12.73,47.84626,-54.09684
2019-12-30 13:59:01+00:00,380.8146,1.79,12.73,47.84626,-54.09684
2019-12-30 14:09:01+00:00,385.283,1.79,12.73,47.84626,-54.09684
2019-12-30 14:19:01+00:00,386.6746,1.76,12.97,47.84626,-54.09684
2019-12-30 14:29:01+00:00,388.8279,1.7,12.97,47.84626,-54.09684
2019-12-30 14:39:01+00:00,394.0345,1.73,12.97,47.84626,-54.09684
2019-12-30 14:49:01+00:00,395.1796,1.77,12.97,47.84626,-54.09684
2019-12-30 14:59:01+00:00,394.9229,1.73,12.97,47.84626,-54.09684
2019-12-30 15:09:01+00:00,396.7263,1.76,12.97,47.84626,-54.09684
2019-12-30 15:19:01+00:00,394.8979,1.79,13.21,47.84626,-54.09684
2019-12-30 15:29:01+00:00,390.7178,1.79,13.21,47.84626,-54.09684
2019-12-30 15:39:01+00:00,388.3596,1.79,13.21,47.84626,-54.09684
2019-12-30 15:49:01+00:00,384.5696,1.8,13.21,47.84626,-54.09684
2019-12-30 15:59:01+00:00,377.8446,1.8,13.21,47.84626,-54.09684
2019-12-30 16:09:01+00:00,374.1896,1.8,13.21,47.84626,-54.09684
2019-12-30 16:19:01+00:00,371.3413,1.8,13.37,47.84626,-54.09684
2019-12-30 16:29:01+00:00,364.0429,1.8,13.37,47.84626,-54.09684
2019-12-30 16:39:01+00:00,355.0279,1.8,13.37,47.84626,-54.09684
2019-12-30 16:49:01+00:00,351.8146,1.8,13.37,47.84626,-54.09684
2019-12-30 16:59:01+00:00,343.74300000000005,1.8,13.37,47.84626,-54.09684
2019-12-30 17:09:01+00:00,331.2313,1.8,13.37,47.84626,-54.09684
2019-12-30 17:19:01+00:00,321.0264,1.8,13.37,47.84626,-54.09684
2019-12-30 17:29:01+00:00,314.8846,1.85,13.37,47.84626,-54.09684
2019-12-30 17:39:01+00:00,308.6213,1.84,13.37,47.84626,-54.09684
2019-12-30 17:49:01+00:00,300.093,1.84,13.37,47.84626,-54.09684
2019-12-30 17:59:01+00:00,294.0181,1.88,13.37,47.84626,-54.09684
2019-12-30 18:09:01+00:00,284.1931,1.8,13.37,47.84626,-54.09684
2019-12-30 18:19:01+00:00,272.6314,1.8,13.29,47.84626,-54.09684
2019-12-30 18:29:01+00:00,264.9447,1.8,13.29,47.84626,-54.09684
2019-12-30 18:39:01+00:00,256.1497,1.82,13.29,47.84626,-54.09684
2019-12-30 18:49:01+00:00,244.0414,1.8,13.29,47.84626,-54.09684
2019-12-30 18:59:01+00:00,234.888,1.8,13.29,47.84626,-54.09684
2019-12-30 19:09:01+00:00,231.2332,1.9,13.29,47.84626,-54.09684
2019-12-30 19:19:01+00:00,223.4664,1.9,13.05,47.84626,-54.09684
2019-12-30 19:29:01+00:00,217.5498,1.85,13.05,47.84626,-54.09684
2019-12-30 19:39:01+00:00,218.1647,1.84,13.05,47.84626,-54.09684
2019-12-30 19:49:01+00:00,216.6815,1.88,13.05,47.84626,-54.09684
2019-12-30 19:59:01+00:00,213.4315,1.89,13.05,47.84626,-54.09684
2019-12-30 20:09:01+00:00,212.8715,1.87,13.05,47.84626,-54.09684
2019-12-30 20:19:01+00:00,212.6115,1.86,12.89,47.84626,-54.09684
2019-12-30 20:29:01+00:00,213.5964,1.85,12.89,47.84626,-54.09684
2019-12-30 20:39:01+00:00,217.5481,1.83,12.89,47.84626,-54.09684
2019-12-30 20:49:01+00:00,223.1497,1.82,12.89,47.84626,-54.09684
2019-12-30 20:59:01+00:00,224.2881,1.8,12.89,47.84626,-54.09684
2019-12-30 21:09:01+00:00,227.0264,1.8,12.89,47.84626,-54.09684
2019-12-30 21:19:01+00:00,235.1048,1.82,12.81,47.84626,-54.09684
2019-12-30 21:29:01+00:00,243.2214,1.8,12.81,47.84626,-54.09684
2019-12-30 21:39:01+00:00,245.7298,1.8,12.81,47.84626,-54.09684
2019-12-30 21:49:01+00:00,249.068,1.79,12.81,47.84626,-54.09684
2019-12-30 21:59:01+00:00,255.5414,1.8,12.81,47.84626,-54.09684
2019-12-30 22:09:01+00:00,259.8714,1.86,12.81,47.84626,-54.09684
2019-12-30 22:19:01+00:00,256.9147,1.89,12.81,47.84626,-54.09684
2019-12-30 22:29:01+00:00,257.0214,1.8,12.81,47.84626,-54.09684
2019-12-30 22:39:01+00:00,261.6464,1.84,12.81,47.84626,-54.09684
2019-12-30 22:49:01+00:00,267.8064,1.88,12.81,47.84626,-54.09684
2019-12-30 22:59:01+00:00,268.563,1.84,12.81,47.84626,-54.09684
2019-12-30 23:09:01+00:00,268.8331,1.8,12.81,47.84626,-54.09684
2019-12-30 23:19:01+00:00,273.4865,1.8,12.81,47.84626,-54.09684
2019-12-30 23:29:01+00:00,278.6831,1.8,12.81,47.84626,-54.09684
2019-12-30 23:39:01+00:00,276.9265,1.8,12.81,47.84626,-54.09684
2019-12-30 23:49:01+00:00,276.6964,1.8,12.81,47.84626,-54.09684
2019-12-30 23:59:01+00:00,281.2647,1.83,12.81,47.84626,-54.09684
